Regional Weather Roundup
Issued by NWS

Home | Current Version | Previous Version | Graphics & Text | Print | Product List | Glossary On
Versions: 1 2 3 4 5 6 7 8 9 10 11 12 13 14 15 16 17 18 19 20 21 22 23 24 25 26 27 28 29 30 31 32 33 34 35 36 37 38 39 40 41 42 43 44 45 46 47 48 49 50
690
ASUS43 KDTX 280510
RWRMI
MICHIGAN HOURLY REGIONAL WEATHER ROUNDUP
NATIONAL WEATHER SERVICE DETROIT/PONTIAC MI
100 AM EDT WED JUN 28 2017

NOTE: "FAIR" INDICATES FEW OR NO CLOUDS BELOW 12,000 FEET WITH NO
SIGNIFICANT WEATHER AND/OR OBSTRUCTION TO VISIBILITY.

MIZ047>049-052>055-059>063-066>070-074>076-081>083-280600-
SOUTHEAST LOWER MICHIGAN

CITY           SKY/WX    TMP DP  RH WIND       PRES   REMARKS
ADRIAN         CLEAR     54  47  77 CALM      30.10R
ALMA           CLEAR     51  51  97 SW3       30.06S
ANN ARBOR      CLEAR     46  45  96 CALM      30.08R
BAD AXE        CLEAR     54  51  90 CALM      30.05R
CARO           CLEAR     53  52  98 CALM      30.05R
DETROIT CITY   CLEAR     62  47  57 W3        30.07R
DETROIT        PTCLDY    60  49  66 CALM      30.09R
FLINT          CLEAR     56  47  71 CALM      30.06S
GROSSE ILE     CLEAR     60  48  65 W3        30.07R
HILLSDALE      CLEAR     50  45  81 CALM      30.10R
HOWELL         CLEAR     56  46  68 CALM      30.07F

CITY           SKY/WX    TMP DP  RH WIND       PRES   REMARKS
JACKSON        CLEAR     52  47  83 SW3       30.08
LAMBERTVILLE   CLEAR     54  49  84 CALM      30.09R
LANSING        CLEAR     58  47  66 CALM      30.08R
LAPEER         FAIR      52  50  95 CALM      30.07R
MASON          CLEAR     54  48  82 CALM      30.08S
MONROE         CLEAR     55  49  82 CALM      30.08R
MT. CLEMENS    CLEAR     57  52  82 W5        30.05R
PONTIAC        CLEAR     58  49  72 CALM      30.06R
PORT HOPE        N/A     58  52  80 SW6       30.02R
PORT HURON     CLEAR     50  48  93 CALM      30.06S
TRI CITIES     CLEAR     58  52  80 SW5       30.06R
MIDLAND        FAIR      53  50  89 CALM      30.04S
TROY           CLEAR     61  45  55 W3        30.09R
SAGINAW HB     CLEAR     55  48  76 SW5       30.05R
$$
MIZ043>046-050>051-056>058-064>065-071>073-077>080-280600-
SOUTHWEST LOWER MICHIGAN

CITY           SKY/WX    TMP DP  RH WIND       PRES   REMARKS
BATTLE CREEK   CLEAR     55  47  74 SW3       30.08S
BENTON HARBOR  CLEAR     58  45  62 SE3       30.07R
BIG RAPIDS     CLEAR     53  49  88 CALM      30.04S
COLDWATER      CLEAR     51  48  87 CALM      30.09S
FREMONT        FAIR      53  49  87 CALM      30.04S
HOLLAND        CLEAR     56  48  74 S6        30.06S
GRAND RAPIDS   CLEAR     54  50  86 S7        30.06S
IONIA          FAIR      58  47  66 SW5       30.06S
KALAMAZOO      CLEAR     54  47  77 S3        30.08S
LUDINGTON      PTCLDY    58  53  83 CALM      30.02R
MARSHALL       CLEAR     52  48  87 CALM      30.08S
MOUNT PLEASANT CLEAR     56  51  83 CALM      30.04S
MUSKEGON       CLEAR     58  53  84 S3        30.04S
SOUTH HAVEN    CLEAR     58  49  73 CALM      30.06S
$$
MIZ016>042-280600-
NORTHERN LOWER MICHIGAN

CITY           SKY/WX    TMP DP  RH WIND       PRES   REMARKS
ALPENA         CLEAR     49  49 100 CALM      30.01S
BEAVER ISLAND  CLEAR     61  52  72 SW9G16    29.98S
BELLAIRE       CLEAR     50  48  93 CALM      30.02R
CADILLAC       CLEAR     53  49  85 CALM      30.04R
CHARLEVOIX     CLEAR     56  50  79 SE3       30.02S
FRANKFORT      CLEAR     62  51  69 S5        30.01R
GAYLORD        CLEAR     52  45  77 SW3       30.02R
GRAYLING       CLEAR     46  45  98 CALM      30.04R FOG
HARBOR SPRINGS CLEAR     51  51  98 CALM      29.99S
HOUGHTON LAKE  CLEAR     51  48  89 SW3       30.05R
MANISTEE       CLEAR     54  50  86 CALM      30.02R
OSCODA         CLEAR     53  50  90 SW5       30.02R
PELLSTON       CLEAR     49  46  90 CALM      29.99S
ROGERS CITY    CLEAR     55  47  74 SW7       30.00S
TRAVERSE CITY  CLEAR     59  50  72 S3        30.00R
$$
MIZ007>008-015-280600-
EASTERN UPPER MICHIGAN

CITY           SKY/WX    TMP DP  RH WIND       PRES   REMARKS
KINROSS        PTCLDY    54  51  90 S3        29.97S
MACKINAC ISLAN CLEAR     57  51  79 SW8       29.98R
NEWBERRY       CLEAR     54  52  93 S9        29.95S
S. S. MARIE    PTCLDY    53  48  83 CALM      29.96S
MUNISING         N/A     59  54  83 S7        29.91S
$$
MIZ004>006-011>014-085-280600-
CENTRAL UPPER MICHIGAN

CITY           SKY/WX    TMP DP  RH WIND       PRES   REMARKS
MANISTIQUE     CLEAR     56  53  89 S7        29.95S
ESCANABA       CLEAR     60  55  83 SW6       29.94R
MENOMINEE      PTCLDY    61  50  67 SW5       29.96S
SAWYER-GWINN   MOCLDY    56  52  88 S7        29.92S
$$
MIZ001>003-009>011-084-280600-
WESTERN UPPER MICHIGAN

CITY           SKY/WX    TMP DP  RH WIND       PRES   REMARKS
IRON MOUNTAIN  CLOUDY    63  46  54 SW8       29.93S
HOUGHTON       MOCLDY    62  47  57 SW8       29.87R
COPPER HARBOR    N/A     58  45  62 SW8       29.85S
IRONWOOD       CLEAR     62  48  60 S10       29.88F
$$

ABBREVIATIONS USED IN REMARKS
   TC - TEMPERATURE IN CELSIUS
  WCI - WIND CHILL INDEX
   HX - HEAT INDEX
  VSB - VISIBILITY





USA.gov is the U.S. government's official web portal to all federal, state and local government web resources and services.